Regional Weather Roundup
Issued by NWS

Home | Current Version | Previous Version | Text Only | Print | Product List | Glossary Off
Versions: 1 2 3 4 5 6 7 8 9 10 11 12 13 14 15 16 17 18 19 20 21 22 23 24 25 26 27 28 29 30 31 32 33 34 35 36 37 38 39 40 41 42 43 44 45 46 47 48 49 50

000
ASUS45 KCYS 250610
RWRWY

WYOMING REGIONAL WEATHER ROUNDUP
NATIONAL WEATHER SERVICE CHEYENNE WY
1200 AM MDT MON SEP 25 2017

NOTE:  "FAIR" INDICATES FEW OR NO CLOUDS BELOW 12,000 FEET
WITH NO SIGNIFICANT WEATHER AND/OR OBSTRUCTIONS TO VISIBILITY.

WYZ001-250700-
YELLOWSTONE NATIONAL PARK

CITY           SKY/WX    TMP DP  RH WIND       PRES   REMARKS
LK YELLOWSTONE NOT AVBL
W YELLOWSTONE  NOT AVBL

$$
WYZ002>013-054>058-071-098>099-250700-
NORTHERN WYOMING

CITY           SKY/WX    TMP DP  RH WIND       PRES   REMARKS
JACKSON        CLOUDY    36  35  96 CALM      30.10R
CODY           CLOUDY    42  34  73 CALM      30.13R
GREYBULL       CLOUDY    45  44  97 S3        30.10F
6HR MIN TEMP:  45; 6HR MAX TEMP:  50; 6HR PCP:  0.01;

WORLAND        CLOUDY    43  42  97 CALM      30.10S
6HR MIN TEMP:  43; 6HR MAX TEMP:  44; 6HR PCP:  0.03;

SHERIDAN       CLOUDY    44  40  85 NE3       30.12S
6HR MIN TEMP:  44; 6HR MAX TEMP:  46;

BUFFALO        CLOUDY    41  37  86 SE3       30.13R
6HR MIN TEMP:  41; 6HR MAX TEMP:  43; 6HR PCP: TRACE;

GILLETTE       CLOUDY    41  39  93 NE5       30.12S
6HR MIN TEMP:  41; 6HR MAX TEMP:  42;

HULETT         CLOUDY    41  37  87 NE3       30.14S
NEWCASTLE      LGT RAIN  41  41 100 N3        30.12R

$$
WYZ014>020-022>026-101>103-250700-
CENTRAL WYOMING

CITY           SKY/WX    TMP DP  RH WIND       PRES   REMARKS
BIG PINEY      LGT SNOW  33  33 100 CALM      30.11R FOG
6HR MIN TEMP:  33; 6HR MAX TEMP:  35; 6HR PCP:  0.21;

PINEDALE       MIX PCPN  34  34 100 NW5       30.12R WCI  30
DUBOIS         CLOUDY    32  32 100 SE8       30.10S WCI  25
LANDER         CLOUDY    38  36  92 CALM      30.11S
6HR MIN TEMP:  37; 6HR MAX TEMP:  39;

RIVERTON       CLOUDY    38  38 100 W5        30.11F WCI  34
6HR MIN TEMP:  38; 6HR MAX TEMP:  39; 6HR PCP: TRACE;

CASPER         LGT RAIN  34  33  96 E3        30.12F
6HR MIN TEMP:  34; 6HR MAX TEMP:  39; 6HR PCP:  0.26;

DOUGLAS        CLOUDY    38  36  92 W7        30.15R WCI  33
6HR MIN TEMP:  38; 6HR MAX TEMP:  43; 6HR PCP:  0.27;


$$
WYZ021-027>030-104>119-250700-
SOUTHERN WYOMING

CITY           SKY/WX    TMP DP  RH WIND       PRES   REMARKS
EVANSTON       CLOUDY    34  34 100 SW9       30.12S WCI  27
6HR MIN TEMP:  33; 6HR MAX TEMP:  34;

FORT BRIDGER   CLOUDY    36  36 100 W12       30.13R WCI  27
ROCK SPRINGS   CLOUDY    34  33  96 NE9       30.09S WCI  27
6HR MIN TEMP:  34; 6HR MAX TEMP:  38; 6HR PCP: TRACE;

DIXON          CLOUDY    37  35  89 CALM      30.12S
RAWLINS        CLOUDY    34  33  96 SE3       30.11R FOG
6HR MIN TEMP:  33; 6HR MAX TEMP:  41; 6HR PCP:  0.13;

SARATOGA       MOCLDY    34  34 100 SW5       30.11S WCI  30
LARAMIE        CLOUDY    33  32  96 W9        30.09F WCI  25
6HR MIN TEMP:  32; 6HR MAX TEMP:  40; 6HR PCP:  0.32;

CHEYENNE       CLOUDY    40  37  89 N10       30.08F WCI  33
6HR MIN TEMP:  40; 6HR MAX TEMP:  43; 6HR PCP:  0.26;

TORRINGTON     LGT RAIN  45  45 100 N5        30.10R
6HR MIN TEMP:  45; 6HR MAX TEMP:  50; 6HR PCP:  0.14;

PINE BLUFFS    DRIZZLE   43  43 100 N6        30.11R

$$



USA.gov is the U.S. government's official web portal to all federal, state and local government web resources and services.